Torna al catalogo

DELTA 2 R/B(1)

AttivoLEO
NORAD 22276·ROCKET BODY·🇺🇸 United States

Lanciato Dec 18, 1992 da Cape Canaveral Space Force Station

Loading…

Prossimi Passaggi (prossime 24 ore)

TLE

AggiornatoSource: Space-Track

Epoca: Sep 14, 2026, 14:02 UTC

1 22276U 92089B   26257.58508166  .00002036  00000-0  13218-3 0  9997
2 22276  20.2848  42.2686 0049720  35.2860 325.0845 14.96623025805119

Traccia DELTA 2 R/B(1) in tempo reale con AllMySat

Download on the App Store